星链-1763 (STARLINK-1763 )

导读 | 豆包AI

STARLINK-1763是美国SpaceX公司星链星座的V1.0批次卫星,于2020年9月3日发射升空,属于星链全球卫星互联网项目的一员。它运行在近地低轨道,配备相控阵通信天线与氪离子推进系统,为地面偏远区域提供低延迟、高速率的互联网接入服务。作为星链早期部署的卫星之一,它助力搭建起覆盖全球的空间通信网络,后续将在寿命终结后主动降轨再入大气层销毁,减少太空垃圾。

Basic Information
目录编号:
46364
目录名称:
STARLINK-1763
国际标识:
2020-062AR
轨道中心:
EARTH
卫星名称:
星链-1763
卫星全名:
星链-1763 (STARLINK-1763 )
卫星状态:
已陨落 最后检测时间 2025-03-03
发射日期:
2020-09-03 UTC
国别 :
美国 (US)
星等 :
--
Orbit Information
数据来源 国际轨道数据
星历时间: 2025-03-03T01:24:25+0800
轨道信息已过期425天
半长轴: 6539.884km
偏心率: 0.0005271
轨道倾角: 53.026°
近地点辐角 320.382°
升交点赤经 138.999°
平近点角 180.560°
近地点: 158.301km
远地点: 165.197km
周期: 87.723分钟
每日圈数: 16.41526
Detailed Information
固有亮度:
5
最大亮度:
2.5
卫星平台:
Starlink V1.0
覆盖范围:
全球
运营商:
太空探索技术公司
运营商所在国:
美国
制造商(研发单位):
太空探索技术公司
制造商所在国:
美国
使用方式:
暂无
Satellite Introduction
星链(Starlink)计划是由太空探索技术公司(SpaceX)提出的一个巨型低轨卫星互联网星座项目,计划在2019年至2024年间在太空搭建由约1.2万颗卫星组成的“星链”网络,其中1584颗将部署在地球上空550千米处的近地轨道,并从2020年开始工作。该卫星仍在工作。